Weather History for Marietta, GA

Change the Weather History Date:

Monday, March 10, 2014

  Actual Average Record
Temperature  
Mean Temperature 57 °F -  
Max Temperature 72 °F 59 °F 80 °F (2009)
Min Temperature 43 °F 39 °F 26 °F (1998)
Degree Days  
Heating Degree Days 8    
Growing Degree Days 7 (Base 50)    
Moisture  
Dew Point 43 °F    
Average Humidity 62    
Maximum Humidity 90    
Minimum Humidity 34    
Precipitation  
Precipitation 0.00 in - - ()
Sea Level Pressure  
Sea Level Pressure 30.03 in    
Wind  
Wind Speed 9 mph (West)    
Max Wind Speed 21 mph    
Max Gust Speed 28 mph    
Visibility 10 miles    
Events      
Averages and records for this station are not official NWS values.
T = Trace of Precipitation, MM = Missing Value Source: NWS Daily Summary

Daily Weather History Graph

Daily Weather History Graph

Search for Another Location

Airport:

Trip Planner

Search our weather history database for the weather conditions in past years. The results will help you decide how hot, cold, wet, or windy it might be!

Date:

Astronomy

Mar. 10, 2014 Rise Set
Actual Time 7:55 AM EDT 7:41 PM EDT
Civil Twilight 7:30 AM EDT 8:06 PM EDT
Nautical Twilight 7:01 AM EDT 8:35 PM EDT
Astronomical Twilight 6:32 AM EDT 9:04 PM EDT
Moon 2:35 PM EDT (3/10) 3:55 AM EDT (3/10)
Length of Visible Light 12h 36m
Length of Day
11h 46m
Waxing Gibbous, 70% of the Moon is Illuminated
Mar 10
Waxing Gibbous
Mar 16
Full
Mar 23
Last Quarter
Mar 30
New
Apr 7
First Quarter

Hourly Weather History & Observations

Time (EDT) Temp. Windchill Dew Point Humidity Pressure Visibility Wind Dir Wind Speed Gust Speed Precip Events Conditions
12:58 AM 49.5 °F - 41.2 °F 73% 30.12 in 10.0 mi West 8.1 mph - N/A   Clear
1:58 AM 50.4 °F - 41.5 °F 72% 30.12 in 10.0 mi NW 5.8 mph - N/A   Clear
2:58 AM 52.0 °F - 41.9 °F 69% 30.09 in 10.0 mi West 9.2 mph - N/A   Clear
3:58 AM 47.8 °F - 41.9 °F 80% 30.08 in 10.0 mi WNW 6.9 mph - N/A   Clear
4:58 AM 49.8 °F - 42.3 °F 75% 30.07 in 10.0 mi West 8.1 mph - N/A   Clear
5:58 AM 46.4 °F 42.9 °F 41.2 °F 82% 30.07 in 10.0 mi West 6.9 mph - N/A   Clear
6:58 AM 45.3 °F 40.6 °F 41.2 °F 85% 30.07 in 10.0 mi West 9.2 mph - N/A   Clear
7:58 AM 43.5 °F 38.3 °F 40.6 °F 90% 30.09 in 10.0 mi West 9.2 mph - N/A   Partly Cloudy
8:58 AM 49.3 °F - 44.2 °F 83% 30.10 in 10.0 mi NW 5.8 mph - N/A   Mostly Cloudy
9:58 AM 55.6 °F - 44.1 °F 65% 30.09 in 10.0 mi NW 9.2 mph - N/A   Partly Cloudy
10:58 AM 59.5 °F - 45.5 °F 60% 30.09 in 10.0 mi WNW 12.7 mph - N/A   Mostly Cloudy
11:58 AM 62.8 °F - 46.8 °F 56% 30.08 in 10.0 mi WNW 15.0 mph 26.5 mph N/A   Scattered Clouds
12:58 PM 64.9 °F - 46.9 °F 52% 30.06 in 10.0 mi West 13.8 mph - N/A   Partly Cloudy
1:58 PM 68.4 °F - 46.6 °F 46% 30.02 in 10.0 mi West 12.7 mph 26.5 mph N/A   Partly Cloudy
2:58 PM 70.0 °F - 45.9 °F 42% 29.99 in 10.0 mi West 20.7 mph 27.6 mph N/A   Partly Cloudy
3:58 PM 71.8 °F - 44.2 °F 37% 29.96 in 10.0 mi West 16.1 mph - N/A   Partly Cloudy
4:58 PM 71.4 °F - 41.9 °F 34% 29.94 in 10.0 mi West 16.1 mph 25.3 mph N/A   Partly Cloudy
5:58 PM 70.9 °F - 41.7 °F 35% 29.93 in 10.0 mi West 16.1 mph - N/A   Clear
6:58 PM 68.5 °F - 42.8 °F 39% 29.94 in 10.0 mi WNW 10.4 mph - N/A   Clear
7:58 PM 63.1 °F - 43.0 °F 48% 29.94 in 10.0 mi West 6.9 mph - N/A   Clear
8:58 PM 61.9 °F - 43.2 °F 50% 29.95 in 10.0 mi WNW 5.8 mph - N/A   Clear
9:58 PM 55.2 °F - 44.4 °F 67% 29.95 in 10.0 mi SW 3.5 mph - N/A   Clear
10:58 PM 54.3 °F - 43.9 °F 68% 29.96 in 10.0 mi SW 2.3 mph - N/A   Clear
11:58 PM 53.1 °F - 43.7 °F 71% 29.96 in 10.0 mi West 2.3 mph - N/A   Clear